{"data":{"norad_id":59005,"epoch":"2026-05-25T02:10:27.378624Z","epoch_age_seconds":73996,"freshness":"FRESH","line1":"1 59005U 24036H   26145.09059466  .00000274  00000+0  21378-4 0  9998","line2":"2 59005  53.1598  83.0340 0001298  88.2558 271.8592 15.30189915127024","mean_motion":15.30189915,"eccentricity":0.0001298,"inclination_deg":53.1598,"raan_deg":83.034,"arg_perigee_deg":88.2558,"mean_anomaly_deg":271.8592,"bstar":2.1378e-5,"rev_number":12702,"period_min":94.105965925151,"perigee_km":474.3556125697,"apogee_km":476.13475058404,"semimajor_km":6853.3821815769,"source":"CELESTRAK","updated_at":"2026-05-25T13:38:18.798767Z"}}